METEOR-M2 4

Last updated on Mon Sep 21 2026 00:02:41 GMT+0000 (Coordinated Universal Time)

1 59051U 24039A 26263.63719692 .00000010 00000+0 24140-4 0 9995 2 59051 98.7126 221.7821 0005934 252.0707 107.9824 14.22437905132837
UTC large
Height (km)
Speed (km/s)
/
Latitude / Longitude
Inclination (degrees)
Orbital Period (minutes)
Azimuth
Elevation
Range (km)
Doppler Factor

Next 0 passes for location: London (51.5072 / 0.1276)

No passes found over London.
METEOR-M2 4